Vorticity
nan nan nan nan nan nan nan nan nan nan nan nan nan nan nan nan nan nan nan nan nan nan nan nan nan nan nan nan nan nan nan nan nan nan nan nan nan nan nan nan nan nan nan nan nan nan nan nan nan nan nan nan nan nan nan nan nan nan nan nan nan nan nan nan nan nan nan nan nan
nan 10 11 10 11 11 10 9 8 6 7 8 9 9 10 10 10 9 8 8 8 7 9 8 3 1 -0 5 11 11 10 7 7 9 11 13 11 9 10 10 9 8 9 11 15 16 11 10 15 16 14 10 9 10 10 8 9 11 13 19 24 22 20 19 15 15 16 18 nan
nan 10 11 10 9 10 11 10 4 3 8 11 10 9 10 11 10 9 7 5 5 8 11 7 3 3 6 11 11 9 7 6 7 11 13 13 10 8 8 8 8 9 11 12 12 11 7 11 17 16 13 7 6 8 9 7 7 10 13 23 28 23 20 18 17 18 19 20 nan
nan 11 10 7 5 10 15 10 3 6 13 14 10 11 11 11 9 7 5 5 9 11 9 4 5 7 9 8 5 6 6 6 9 12 14 11 8 7 7 7 9 10 11 10 8 7 8 15 21 16 10 6 9 11 10 5 5 11 13 19 19 18 18 17 17 17 16 15 nan
nan 11 10 6 6 12 14 8 6 11 15 14 11 10 10 9 7 6 6 8 9 5 1 4 10 8 5 2 4 8 10 11 14 15 11 8 10 9 7 7 10 11 10 8 7 8 10 20 24 15 10 11 13 9 4 2 8 12 14 13 12 14 17 18 19 16 13 10 nan
nan 8 9 7 8 13 13 7 7 13 15 12 7 7 8 7 4 2 4 6 4 3 5 12 12 8 4 4 9 12 14 15 13 10 7 10 11 8 7 8 10 11 10 6 6 10 14 22 22 14 11 11 9 5 2 6 11 11 12 11 11 11 11 15 21 20 18 11 nan
nan 8 9 8 10 12 9 8 11 13 15 11 5 5 6 4 1 2 7 10 9 9 12 13 7 5 4 8 11 12 12 11 8 7 9 11 8 7 9 9 9 10 9 8 9 12 15 20 19 13 10 11 9 4 4 7 8 8 9 11 13 10 7 10 15 16 17 18 nan
nan 9 9 9 10 8 8 10 14 14 14 9 3 2 5 6 6 9 13 15 12 10 11 6 0 2 6 9 10 11 11 11 10 9 10 7 6 8 10 10 9 9 10 11 10 11 15 20 16 11 10 10 7 3 1 3 6 8 9 13 14 10 8 8 6 5 5 13 nan
nan 8 9 10 9 8 8 10 12 13 11 7 4 5 7 8 10 13 16 15 9 7 8 3 0 4 8 11 12 13 13 12 11 9 8 6 7 9 12 11 8 9 11 11 10 11 17 20 14 9 7 6 2 -0 -1 4 8 10 13 16 11 8 7 7 4 5 6 8 nan
nan 8 10 9 7 8 9 12 13 12 12 9 6 8 9 10 12 14 15 10 5 4 6 4 4 8 10 13 15 14 13 12 10 8 7 7 7 9 12 10 7 8 10 11 11 14 20 18 9 5 4 2 0 2 4 7 9 11 16 12 3 3 7 9 8 10 12 10 nan
nan 10 11 8 6 9 10 13 14 13 11 8 7 9 10 11 11 11 10 6 4 4 7 7 8 10 14 15 12 11 11 10 8 6 7 8 8 9 10 8 7 7 8 10 14 17 18 11 4 3 4 5 9 10 8 7 9 11 13 7 3 6 9 10 12 14 13 9 nan
nan 10 10 8 7 10 12 15 14 11 8 6 8 10 11 9 7 8 7 7 8 10 11 9 10 13 16 13 9 9 9 8 7 8 9 9 9 10 10 9 7 8 9 13 17 16 11 5 4 5 7 12 16 11 5 5 9 11 11 8 8 9 9 9 12 14 11 8 nan
nan 10 9 8 8 11 13 15 14 10 7 6 9 10 10 7 7 9 9 9 12 13 11 9 12 14 13 9 8 8 8 8 8 10 9 10 10 10 10 9 8 9 12 15 14 11 6 4 5 9 11 15 12 6 3 7 11 11 10 9 10 9 8 9 11 11 9 10 nan
nan 9 9 8 10 13 13 14 14 10 5 6 10 10 10 9 9 10 10 9 9 11 11 12 13 12 8 7 8 7 8 8 8 9 10 10 10 9 10 8 7 10 14 13 9 6 6 7 9 12 13 13 9 7 7 10 11 10 10 9 9 9 9 9 9 10 10 11 nan
nan 9 9 10 12 14 12 14 14 9 5 7 9 10 11 10 9 9 7 7 10 13 12 11 11 8 7 8 9 9 10 10 10 11 11 11 10 9 9 8 9 11 11 9 7 7 7 9 13 14 14 13 11 11 11 11 11 10 9 9 9 10 10 9 10 10 10 11 nan
nan 9 9 10 11 11 11 14 13 8 6 6 7 9 11 11 9 6 5 9 13 12 7 7 11 11 10 10 11 12 13 12 11 12 12 11 9 9 9 9 10 10 9 9 9 8 7 10 14 13 14 14 13 12 11 11 11 10 9 9 10 9 9 9 10 10 10 10 nan
nan 9 9 9 9 10 10 12 10 7 5 5 8 11 12 11 8 5 5 9 11 7 4 8 13 12 10 10 12 13 14 12 11 11 10 9 8 9 9 10 10 10 10 10 9 7 7 10 13 14 15 16 14 13 12 12 12 10 9 10 10 9 9 9 10 11 10 10 nan
nan 9 8 8 8 8 9 10 9 7 6 8 11 11 10 8 7 6 5 7 7 6 7 12 14 12 9 9 12 13 11 9 8 8 8 8 8 9 10 10 10 11 11 10 9 7 7 10 14 16 17 16 14 13 12 12 12 10 10 11 11 10 9 9 11 12 10 10 nan
nan 8 8 8 9 9 9 9 9 9 10 11 10 9 8 7 7 7 6 6 7 9 12 14 13 11 9 10 11 11 11 9 7 8 8 9 10 10 10 10 11 10 11 10 9 8 9 13 17 17 16 14 12 12 12 12 12 11 11 12 12 11 11 11 11 11 9 9 nan
nan 9 9 9 9 9 9 10 10 10 11 10 8 8 8 8 8 7 8 8 9 11 13 13 12 10 9 10 11 12 14 12 7 8 10 11 10 10 10 11 12 12 12 11 10 8 10 16 19 18 15 11 10 11 12 13 12 11 13 14 12 11 11 11 11 10 9 10 nan
nan 9 9 9 9 9 9 9 9 10 10 9 9 9 9 8 8 8 9 10 11 12 13 12 11 10 10 11 11 13 15 12 8 9 11 11 10 11 12 13 13 12 12 11 9 9 12 19 23 20 14 9 9 10 11 12 10 11 13 12 10 9 10 11 11 11 10 10 nan
nan 9 10 10 9 8 8 9 10 10 10 10 10 9 9 8 8 8 10 12 13 12 12 13 12 11 11 11 12 12 13 10 8 10 11 11 10 10 12 13 11 11 11 12 11 11 13 20 25 23 16 9 7 8 9 9 9 10 10 9 9 9 10 11 11 11 10 10 nan
nan 10 12 11 7 7 9 10 10 10 10 10 9 9 8 8 8 9 11 12 12 11 14 15 12 10 11 12 12 11 10 8 8 9 10 10 9 9 13 14 12 11 14 14 11 10 12 16 21 24 20 12 7 8 8 9 9 9 8 8 9 10 11 11 10 10 9 9 nan
nan 11 14 9 5 8 10 10 10 10 10 10 9 9 8 8 9 11 11 11 11 11 14 14 10 9 11 12 11 11 10 9 9 10 10 11 10 11 15 17 14 13 15 9 -2 -3 4 9 14 22 24 17 9 9 9 9 9 9 8 9 9 10 10 10 11 10 8 9 nan
nan 10 11 8 7 9 9 9 9 9 10 9 9 9 8 9 11 11 10 10 11 11 12 12 12 13 13 12 10 10 11 11 11 11 11 11 10 12 17 18 15 13 10 -5 -16 -10 -1 7 19 31 33 20 9 9 9 8 8 9 10 10 10 10 9 9 11 11 10 11 nan
nan 10 9 9 9 9 9 10 10 9 9 9 9 9 8 10 11 9 10 11 11 12 13 14 14 13 13 10 8 9 12 13 11 10 11 9 8 12 18 19 16 11 2 -14 -14 -5 1 11 38 53 45 20 8 9 9 8 7 9 10 11 11 10 10 9 9 11 14 14 nan
nan 9 9 9 9 9 11 11 10 9 9 9 9 9 9 10 10 8 10 12 12 13 15 15 13 13 14 10 6 8 12 12 10 11 11 9 8 11 17 19 16 8 -7 -17 -8 1 5 22 53 61 43 16 8 8 8 7 6 9 11 11 10 9 10 10 9 11 14 16 nan
nan 8 8 8 9 10 11 11 10 10 10 10 10 9 8 8 9 10 12 12 13 16 17 15 14 15 13 6 4 6 9 12 13 12 10 8 8 12 16 17 12 2 -11 -11 0 5 6 32 55 46 25 13 12 10 9 8 8 10 10 10 9 9 10 12 11 10 11 15 nan
nan 8 8 8 9 10 10 10 10 10 11 11 9 8 8 9 10 11 12 12 14 16 17 14 12 9 5 2 5 7 9 13 14 11 7 6 9 12 13 13 10 1 -7 -3 6 7 6 33 47 27 11 13 17 13 10 9 9 9 10 9 9 9 10 11 11 10 11 13 nan
nan 8 8 8 9 9 10 10 10 11 13 11 8 8 9 9 9 10 12 13 15 15 13 10 5 3 3 6 9 10 10 11 10 8 6 7 9 11 11 13 12 5 -4 -2 6 6 5 29 42 21 9 12 18 15 11 9 9 9 10 8 8 9 11 10 10 12 14 13 nan
nan 8 8 8 8 9 9 9 10 11 11 9 7 8 9 8 9 11 12 14 13 11 9 6 5 5 8 10 10 8 9 9 9 8 7 7 8 9 11 13 12 7 -4 -4 4 5 5 27 43 26 13 13 18 14 11 9 10 10 10 8 9 11 14 13 10 10 12 14 nan
nan 8 8 8 8 8 8 9 10 10 9 9 9 9 8 8 10 11 12 13 12 10 9 8 8 9 9 9 8 7 9 9 8 8 7 7 8 8 12 15 13 6 -6 -5 3 5 10 35 50 33 17 13 16 12 11 11 11 10 8 8 10 13 16 15 10 8 10 12 nan
nan 8 8 8 8 8 8 9 10 10 10 10 10 9 8 9 10 11 13 13 12 10 10 10 10 10 9 9 8 8 9 9 7 6 7 8 9 9 13 18 13 -1 -9 -5 3 8 21 50 58 37 17 12 14 11 11 13 13 10 8 8 10 11 12 14 13 10 9 11 nan
nan 8 8 8 8 8 8 8 9 9 10 10 9 9 8 8 9 11 12 13 12 11 11 10 10 10 9 8 8 8 9 8 5 6 8 9 9 10 14 20 9 -9 -11 -2 4 13 32 60 55 31 15 12 13 10 9 12 12 10 8 8 10 10 12 13 13 11 9 11 nan
nan 8 8 9 9 8 8 8 9 9 10 10 9 9 8 8 9 10 11 11 12 12 11 10 10 10 9 8 8 8 7 6 6 7 8 9 9 9 11 14 5 -8 -5 2 6 17 38 56 43 21 13 14 13 9 8 9 9 7 7 8 9 10 13 16 14 11 7 8 nan
nan 8 9 9 9 8 8 9 9 10 10 10 10 9 9 9 10 10 9 11 12 12 11 11 10 9 8 9 10 8 7 6 7 8 9 9 9 9 10 10 5 -1 0 3 7 17 36 46 32 16 15 17 13 10 9 9 7 4 5 6 7 10 15 18 17 13 8 6 nan
nan 9 9 10 9 9 9 9 9 9 10 11 10 10 10 10 11 10 9 11 12 11 12 11 10 9 8 9 10 8 7 7 7 8 9 10 10 9 10 10 8 5 2 1 5 13 30 42 33 18 18 18 13 11 10 10 8 5 4 5 6 9 15 18 16 13 9 7 nan
nan 10 10 10 10 9 9 9 9 10 11 11 11 11 11 12 11 9 9 10 10 10 11 11 10 9 8 9 11 9 9 8 7 8 9 10 10 9 9 11 11 8 1 -0 3 8 20 40 41 22 19 17 13 13 12 10 9 8 8 7 6 7 12 14 12 9 5 5 nan
nan 10 11 10 10 10 9 9 10 11 12 12 11 10 11 13 11 8 8 8 9 10 12 11 9 9 8 11 13 11 9 8 8 9 10 10 8 8 10 13 11 7 0 -1 3 6 12 36 46 28 21 17 15 14 12 9 8 9 11 11 8 6 8 10 9 6 1 -3 nan
nan 11 11 11 10 10 10 10 11 12 12 11 10 11 12 12 10 9 9 8 8 11 13 11 8 9 10 13 14 12 10 9 8 9 10 10 9 8 12 13 10 7 2 0 2 5 8 29 47 38 28 17 14 14 13 9 8 9 11 12 11 9 8 9 9 7 2 -4 nan
nan nan nan nan nan nan nan nan nan nan nan nan nan nan nan nan nan nan nan nan nan nan nan nan nan nan nan nan nan nan nan nan nan nan nan nan nan nan nan nan nan nan nan nan nan nan nan nan nan nan nan nan nan nan nan nan nan nan nan nan nan nan nan nan nan nan nan nan nan
CAPE
nan nan nan nan 0 0 nan 0 5 5 2 nan 0 0 0 1 0 nan nan nan nan nan nan nan nan 1 1 4 8 8 8 10 10 17 17 20 30 37 37 25 22 23 23 22 17 17 14 16 17 17 23 34 42 47 47 58 62 59 59 48 23 20 20 19 19 19 23 21 23
nan nan nan 0 1 1 nan 0 1 1 0 nan 0 1 1 1 1 0 0 nan nan nan nan nan nan 0 0 4 8 8 8 9 9 13 13 21 32 37 37 24 20 22 22 19 16 16 14 16 16 16 23 37 51 57 57 49 57 70 70 74 46 23 23 20 22 22 23 19 22
nan nan nan nan nan nan nan nan nan nan nan nan 0 1 1 2 2 0 0 0 nan nan nan nan nan 1 1 4 5 5 5 8 9 12 12 21 36 39 39 25 21 23 23 18 14 14 14 16 17 17 26 38 47 52 52 57 54 46 46 54 65 45 45 26 33 33 25 23 28
nan nan nan nan nan nan nan nan nan nan nan nan 0 1 1 2 2 1 1 0 nan nan nan nan 1 3 3 3 2 2 2 9 10 13 13 18 35 40 40 25 25 21 21 16 16 16 12 15 17 17 23 36 43 48 48 52 42 36 36 40 58 57 57 44 29 29 29 31 47
nan nan nan nan nan nan nan 0 nan nan nan 0 0 0 0 2 2 2 2 1 nan nan nan nan 3 2 2 1 0 0 1 5 17 10 10 17 29 37 37 30 26 21 21 17 16 16 13 15 15 15 24 34 40 49 49 48 38 34 34 34 46 57 57 58 40 40 33 37 54
nan nan nan nan nan nan nan 0 0 0 nan 0 1 1 1 2 2 3 3 2 0 0 0 0 0 0 0 nan nan nan 0 3 8 7 7 11 19 32 32 33 23 18 18 18 16 16 13 17 16 16 23 27 33 40 40 41 39 33 33 30 35 46 46 59 65 65 55 51 48
nan nan nan nan 0 0 0 0 nan nan 0 1 2 3 3 4 5 6 6 3 1 1 1 1 0 nan nan nan nan nan 1 3 5 6 6 8 14 23 23 29 25 21 21 18 17 17 14 17 16 16 25 30 24 25 25 31 36 35 35 28 35 34 34 30 41 41 57 71 72
nan nan nan 0 2 2 2 1 0 0 0 1 2 4 4 6 7 5 5 3 1 2 2 2 0 nan nan nan 0 0 1 3 4 4 4 6 10 15 15 25 25 22 22 19 16 16 15 15 16 16 24 25 18 20 20 26 30 34 34 31 30 31 31 22 19 19 23 24 35
nan 0 0 3 3 3 2 3 2 2 0 1 2 3 3 6 7 5 5 3 5 5 5 1 0 nan nan 0 2 2 4 8 6 5 5 5 6 13 13 30 30 24 24 19 17 17 17 17 16 16 17 19 17 22 22 26 27 31 31 37 34 26 26 21 16 16 14 18 17
nan 0 0 1 0 0 4 3 2 2 1 2 2 4 4 15 10 5 5 5 9 4 4 1 1 1 1 2 3 3 6 9 12 11 11 8 9 15 15 33 36 24 24 18 16 16 22 22 20 20 16 17 21 27 27 29 28 32 32 39 39 30 30 19 17 17 16 16 16
nan 0 0 0 0 0 8 2 3 3 3 2 4 5 5 13 7 5 5 10 7 4 4 3 3 5 5 5 6 6 5 5 8 12 12 10 11 19 19 35 39 25 25 18 22 22 22 26 18 18 18 15 23 31 31 32 29 33 33 36 31 30 30 24 16 16 13 13 14
nan 1 1 2 4 4 6 2 3 3 4 4 7 6 6 4 5 8 8 10 6 6 6 8 8 8 8 6 6 6 4 4 6 9 9 10 12 23 23 36 40 26 26 22 26 26 21 23 21 21 19 14 19 29 29 31 31 34 34 37 33 30 30 28 19 19 14 13 12
1 1 1 2 6 6 5 5 5 5 5 6 9 7 7 5 7 10 10 9 7 8 8 13 13 12 12 7 5 5 4 5 5 4 4 7 12 24 24 30 39 26 26 20 22 22 19 25 32 32 26 15 20 25 25 27 31 28 28 35 35 32 32 29 23 23 15 15 14
2 2 2 3 6 6 6 8 7 7 6 6 9 7 7 6 8 10 10 9 11 14 14 16 14 7 7 7 5 5 6 5 5 5 5 5 8 20 20 25 29 32 32 24 27 27 24 17 20 20 21 22 22 26 26 27 27 29 29 28 29 31 31 28 25 25 18 16 15
1 3 3 4 6 6 6 7 7 7 5 7 7 6 6 5 10 10 10 9 14 14 14 12 10 9 9 8 7 7 8 6 6 6 6 7 7 10 10 18 23 29 29 33 40 40 31 22 16 16 20 25 26 27 27 24 25 28 28 27 26 29 29 23 20 20 20 18 16
1 3 3 4 5 5 6 8 6 6 7 7 11 11 11 6 9 14 14 13 13 12 12 10 10 10 10 10 10 10 9 8 9 8 8 8 11 13 13 17 21 26 26 37 38 38 36 28 20 20 20 28 27 23 23 22 23 26 26 27 26 23 23 20 20 20 17 17 15
4 5 5 5 5 5 7 5 5 5 6 8 13 12 12 12 12 20 20 19 13 11 11 10 9 6 6 13 12 12 10 12 12 11 11 13 18 20 20 19 20 25 25 36 31 31 31 24 22 22 30 34 30 24 24 23 23 22 22 24 25 22 22 22 21 21 17 16 14
6 8 8 8 11 11 14 15 14 14 14 16 16 17 17 21 23 19 19 22 17 25 25 20 19 17 17 19 18 18 22 25 24 19 19 20 24 24 24 20 23 25 25 30 23 23 20 16 26 26 45 44 30 27 27 23 23 20 20 19 18 14 14 13 14 14 14 13 13
6 8 8 11 16 16 25 24 20 20 17 18 23 29 29 30 28 27 27 24 20 21 21 20 15 16 16 19 21 21 28 27 27 27 27 27 25 24 24 23 24 24 24 25 16 16 15 14 31 31 60 32 25 24 24 21 17 15 15 16 13 9 9 5 6 6 10 15 12
7 8 8 10 20 20 23 23 23 23 24 20 25 34 34 31 32 34 34 32 16 20 20 17 16 18 18 22 26 26 25 24 25 27 27 28 27 24 24 22 23 22 22 19 11 11 11 10 41 41 73 18 13 19 19 16 12 10 10 7 6 5 5 4 5 5 8 13 12
10 11 11 14 26 26 24 23 26 26 27 25 27 26 26 28 36 35 35 27 20 19 19 14 16 22 22 24 23 23 25 23 24 26 26 29 28 24 24 25 21 17 17 15 10 10 10 13 65 65 85 16 11 16 16 13 6 7 7 3 5 9 9 8 7 7 7 9 11
12 15 15 17 24 24 24 25 28 28 26 25 25 26 26 33 35 28 28 22 20 13 13 10 13 19 19 20 20 20 22 23 26 26 26 27 26 26 26 21 16 13 13 16 12 12 6 15 78 78 88 37 10 14 14 10 5 4 4 3 6 9 9 11 5 5 6 7 8
17 18 18 22 24 24 29 28 29 29 26 26 24 30 30 36 34 24 24 21 20 15 15 13 14 17 17 19 22 22 23 25 30 30 30 30 26 25 25 15 14 14 14 15 11 11 4 7 44 44 59 22 1 3 3 2 3 3 3 5 6 5 5 9 7 7 5 5 5
16 19 19 21 21 21 25 31 33 33 29 24 25 36 36 36 31 25 25 22 19 18 18 15 14 18 18 22 25 25 23 23 29 34 34 31 29 23 23 13 13 9 9 10 21 21 34 27 24 24 48 20 1 2 2 1 1 2 2 5 6 4 4 4 7 7 2 4 2
17 19 19 20 21 21 26 30 32 32 27 24 27 34 34 33 29 23 23 19 18 17 17 16 17 19 19 23 26 26 23 22 29 34 34 32 31 24 24 10 9 5 5 9 68 68 131 118 91 91 54 31 4 1 1 nan nan 1 1 4 6 5 5 5 4 4 3 1 nan
17 16 16 17 18 18 22 27 28 28 25 24 29 30 30 31 28 20 20 17 16 17 17 19 18 26 26 18 23 23 22 19 23 28 28 31 33 22 22 8 8 5 5 31 87 87 133 177 237 237 107 32 7 3 3 nan nan 1 1 4 5 5 5 5 7 7 7 1 nan
12 11 11 10 13 13 16 19 22 22 23 24 27 29 29 30 24 18 18 14 15 18 18 19 20 28 28 10 17 17 17 13 17 29 29 33 28 18 18 7 5 8 8 49 106 106 140 204 275 275 110 38 14 4 4 nan nan 3 3 7 3 5 5 5 7 7 13 9 3
5 5 5 5 4 4 6 12 17 17 18 19 24 28 28 28 21 15 15 11 13 15 15 16 17 11 11 6 10 10 11 12 14 18 18 23 23 15 15 6 5 18 18 63 121 121 142 269 282 282 60 26 25 12 12 0 nan 2 2 6 1 4 4 6 9 9 15 20 16
2 4 4 4 2 2 3 6 9 9 10 15 20 25 25 25 18 11 11 8 8 7 7 8 5 3 3 3 6 6 9 10 12 11 11 16 12 14 14 5 4 22 22 80 131 131 151 289 247 247 59 16 7 0 0 nan nan nan nan 0 0 2 2 6 13 13 23 31 31
2 3 3 3 3 3 2 5 8 8 7 10 17 24 24 23 16 8 8 4 2 3 3 5 2 0 0 2 4 4 7 10 9 8 8 14 12 9 9 6 3 18 18 79 142 142 178 280 177 177 57 12 nan nan nan nan nan nan nan 1 1 1 1 6 24 24 35 36 28
3 3 3 3 2 2 2 5 5 5 5 6 17 20 20 20 13 2 2 nan nan 2 2 2 0 0 0 0 2 2 5 7 7 12 12 13 14 10 10 3 0 13 13 82 165 165 214 291 122 122 27 0 nan nan nan nan nan nan nan 3 4 2 2 9 30 30 46 42 26
3 3 3 2 2 2 3 4 4 4 5 7 13 15 15 13 7 nan nan nan nan nan nan nan nan nan nan nan 0 0 2 5 7 10 10 12 9 5 5 2 nan 9 9 90 174 174 240 318 79 79 0 nan nan nan nan nan nan 0 0 7 7 3 3 17 39 39 56 45 30
2 3 3 2 2 2 4 6 7 7 6 7 10 12 12 9 6 1 1 nan nan nan nan nan nan nan nan nan 0 0 1 5 8 20 20 19 7 4 4 3 nan 16 16 91 173 173 271 334 48 48 nan nan nan nan nan nan nan 3 3 8 7 6 6 39 59 59 63 49 33
2 2 2 2 3 3 4 7 9 9 5 6 9 11 11 10 9 5 5 nan nan nan nan nan nan nan nan nan 0 0 1 6 7 8 8 5 2 3 3 3 nan 31 31 89 184 184 334 390 52 52 nan nan nan nan nan nan nan 6 6 10 4 5 5 41 69 69 72 46 35
2 1 1 1 3 3 5 9 10 10 6 5 8 9 9 7 9 5 5 0 nan nan nan nan nan nan nan nan 0 0 1 6 6 2 2 0 0 1 1 1 nan 33 33 83 199 199 389 377 99 99 nan nan nan nan nan nan 0 4 4 8 3 3 3 31 66 66 77 53 36
1 0 0 0 2 2 4 8 9 9 6 5 7 7 7 5 5 5 5 4 nan nan nan nan nan nan nan nan 0 0 1 3 3 0 0 nan nan 0 0 nan nan 17 17 72 233 233 434 349 92 92 nan nan nan nan nan nan 1 7 7 7 2 1 1 7 39 39 74 61 42
1 0 0 0 1 1 3 7 7 7 5 5 7 8 8 8 7 6 6 4 nan nan nan nan nan nan nan nan nan nan 1 5 2 nan nan nan 0 0 0 nan nan 5 5 73 269 269 426 396 88 88 5 nan nan nan nan nan 0 9 9 11 7 7 7 13 38 38 58 59 47
2 1 1 1 2 2 6 7 7 7 5 6 6 8 8 10 8 10 10 6 nan nan nan nan nan nan nan 0 1 1 3 6 1 nan nan nan 0 1 1 nan nan 1 1 72 276 276 417 394 100 100 20 nan nan nan nan nan 1 7 7 13 14 17 17 34 58 58 56 61 83
6 7 7 6 6 6 8 7 6 6 6 8 7 6 6 8 8 10 10 8 0 nan nan nan nan nan nan 1 0 0 4 7 1 nan nan nan 1 5 5 nan nan 1 1 79 263 263 389 429 141 141 27 1 1 nan nan nan 0 7 7 15 22 23 23 31 45 45 57 85 147
7 10 10 8 9 9 10 7 6 6 8 9 7 6 6 8 9 12 12 8 1 nan nan nan nan nan nan 2 1 1 4 8 nan nan nan nan 4 27 27 1 nan 3 3 85 221 221 345 467 267 267 43 1 3 3 3 nan nan 5 5 12 18 24 24 28 28 28 40 67 161
3 7 7 7 9 9 10 7 7 7 9 10 8 7 7 13 14 12 12 5 1 nan nan nan nan nan nan 1 1 1 8 10 nan nan nan nan 5 37 37 4 1 3 3 72 213 213 316 435 381 381 88 4 8 7 7 0 nan 3 3 12 18 25 25 34 30 30 40 53 84